FW7508 Weather Reports


time (UTC)temp
F
wind
direction
speed
knots
gust
knots
rain 1hr
in
rain 24hr
in
rain mn
in
humidity
%
barometer
mb
20260509102154 53 261 1.7 1.7 0.00 0.00 0.00 90 1004.4
20260509101650 53 277 2.6 2.6 0.00 0.00 0.00 90 1004.4
20260509101147 53 269 1.7 1.7 0.00 0.00 0.00 90 1004.8
20260509100644 52 271 2.6 2.6 0.00 0.00 0.00 90 1004.8
20260509100141 52 291 0.9 0.9 0.00 0.00 0.00 90 1004.7
20260509095638 52 264 2.6 2.6 0.00 0.00 0.00 90 1004.8
20260509095135 53 237 2.6 2.6 0.00 0.00 0.00 90 1004.8
20260509094631 52 290 0.9 1.7 0.00 0.00 0.00 90 1004.7
20260509094129 53 0 1.7 4.3 0.00 0.00 0.00 90 1005.1
20260509093627 52 256 1.7 1.7 0.00 0.00 0.00 90 1005.0
20260509093123 52 289 2.6 2.6 0.00 0.00 0.00 90 1005.4
20260509092621 53 222 4.3 6.1 0.00 0.00 0.00 90 1005.2
20260509092120 53 261 1.7 1.7 0.00 0.00 0.00 90 1005.4
20260509091618 53 263 2.6 2.6 0.00 0.00 0.00 90 1005.0
20260509091113 52 286 1.7 1.7 0.00 0.00 0.00 91 1005.6
20260509090612 52 271 1.7 2.6 0.00 0.00 0.00 90 1005.4
20260509090109 53 190 3.5 6.1 0.00 0.00 0.00 90 1005.4
20260509085606 53 259 1.7 1.7 0.00 0.00 0.00 90 1005.6
20260509085102 53 197 4.3 5.2 0.00 0.00 0.00 89 1005.7
20260509084559 53 266 2.6 2.6 0.00 0.00 0.00 88 1005.5
20260509084056 53 285 2.6 4.3 0.00 0.00 0.00 88 1005.8
20260509083554 54 268 2.6 2.6 0.00 0.00 0.00 88 1005.5
20260509083050 54 260 1.7 1.7 0.00 0.00 0.00 88 1005.6
20260509082548 54 262 1.7 1.7 0.00 0.00 0.00 88 1005.6
20260509082044 53 285 0.9 1.7 0.00 0.00 0.00 88 1005.8
20260509081542 53 266 1.7 1.7 0.00 0.00 0.00 88 1006.1
20260509081038 53 255 1.7 1.7 0.00 0.00 0.00 88 1006.0
20260509080536 53 274 0.9 1.7 0.00 0.00 0.00 87 1005.9
20260509080034 54 272 1.7 1.7 0.00 0.00 0.00 87 1005.9
20260509075531 54 271 0.9 1.7 0.00 0.00 0.00 86 1006.0
20260509075029 54 278 1.7 1.7 0.00 0.00 0.00 86 1006.1
20260509074526 55 280 2.6 2.6 0.00 0.00 0.00 85 1006.2
20260509074023 55 271 2.6 2.6 0.00 0.00 0.00 85 1006.3
20260509073519 54 254 0.9 1.7 0.00 0.00 0.00 85 1006.5
20260509073016 54 281 0.9 0.9 0.00 0.00 0.00 85 1006.2
20260509072512 54 282 3.5 4.3 0.00 0.00 0.00 86 1006.3
20260509072009 54 265 0.9 1.7 0.00 0.00 0.00 85 1006.4
20260509071506 54 265 2.6 2.6 0.00 0.00 0.00 85 1006.5
20260509071003 54 197 1.7 2.6 0.00 0.00 0.00 86 1006.6
20260509070500 54 278 1.7 1.7 0.00 0.00 0.00 85 1006.8
20260509065956 55 257 1.7 2.6 0.00 0.00 0.00 85 1006.8
20260509065452 55 266 0.9 1.7 0.00 0.00 0.00 84 1006.9
20260509064948 55 240 2.6 2.6 0.00 0.00 0.00 83 1007.1
20260509064446 55 301 2.6 4.3 0.00 0.00 0.00 83 1007.0
20260509063944 55 258 2.6 2.6 0.00 0.00 0.00 82 1007.0
20260509063445 55 264 0.9 1.7 0.00 0.00 0.00 81 1007.3
20260509062942 55 274 1.7 1.7 0.00 0.00 0.00 80 1007.2
20260509062439 55 284 2.6 4.3 0.00 0.00 0.00 79 1007.3
20260509061937 55 273 0.9 0.9 0.00 0.00 0.00 76 1007.1
20260509061434 55 251 0.9 1.7 0.00 0.00 0.00 71 1007.5
20260509060931 54 279 0.9 0.9 0.00 0.00 0.00 70 1007.4
20260509060428 54 259 1.7 2.6 0.00 0.00 0.00 66 1007.4
20260509055923 54 281 0.9 1.7 0.00 0.00 0.00 62 1007.7
20260509055419 53 243 1.7 2.6 0.00 0.00 0.00 59 1007.6
20260509054916 53 266 0.9 0.9 0.00 0.00 0.00 58 1007.7
20260509054413 53 274 0.9 0.9 0.00 0.00 0.00 57 1007.6
20260509053911 53 265 0.9 0.9 0.00 0.00 0.00 57 1007.7
20260509053409 53 274 0.0 0.9 0.00 0.00 0.00 56 1007.5
20260509052906 53 245 1.7 1.7 0.00 0.00 0.00 56 1007.6
20260509052403 52 235 1.7 1.7 0.00 0.00 0.00 56 1007.8
20260509051901 53 278 0.9 0.9 0.00 0.00 0.00 55 1007.8
20260509051359 52 260 0.9 1.7 0.00 0.00 0.00 55 1007.6
20260509050855 52 256 1.7 1.7 0.00 0.00 0.00 55 1007.8
20260509050352 52 280 0.0 0.0 0.00 0.00 0.00 55 1007.7
20260509045849 51 283 0.0 0.9 0.00 0.00 0.00 55 1007.8
20260509045346 52 236 2.6 4.3 0.00 0.00 0.00 54 1007.5
20260509044843 51 274 0.0 0.9 0.00 0.00 0.00 53 1007.8
20260509044341 51 286 0.0 0.0 0.00 0.00 0.00 52 1007.8
20260509043837 51 274 0.9 0.9 0.00 0.00 0.00 52 1008.0
20260509043333 51 255 0.9 1.7 0.00 0.00 0.00 51 1007.7
20260509042829 51 272 0.9 0.9 0.00 0.00 0.00 51 1007.9
20260509042326 51 278 0.0 0.9 0.00 0.00 0.00 50 1007.9
20260509041822 51 280 0.0 0.0 0.00 0.00 0.00 50 1007.8
20260509041319 51 280 0.0 0.0 0.00 0.00 0.00 49 1008.0
20260509040818 51 289 0.0 0.0 0.00 0.00 0.00 48 1008.3
20260509040315 51 282 0.0 0.0 0.00 0.00 0.00 47 1008.3
20260509035812 51 282 0.0 0.0 0.00 0.00 0.00 47 1008.3
20260509035309 51 268 0.0 0.0 0.00 0.00 0.00 46 1008.4
20260509034805 50 276 0.0 0.0 0.00 0.00 0.00 46 1008.7
20260509034303 51 276 0.0 0.0 0.00 0.00 0.00 45 1008.7
20260509033759 51 275 0.0 0.0 0.00 0.00 0.00 44 1008.5
20260509033257 51 276 0.0 0.0 0.00 0.00 0.00 43 1008.6
20260509032754 51 276 0.0 0.0 0.00 0.00 0.00 43 1008.9
20260509032250 51 277 0.0 0.0 0.00 0.00 0.00 42 1008.9
20260509031748 51 277 0.0 0.0 0.00 0.00 0.00 41 1008.8
20260509031245 51 277 0.0 0.0 0.00 0.00 0.00 40 1009.0
20260509030743 52 276 0.0 0.0 0.00 0.00 0.00 39 1009.0
20260509030241 52 278 0.0 0.0 0.00 0.00 0.00 39 1009.2
20260509025737 52 278 0.0 0.0 0.00 0.00 0.00 39 1008.9
20260509025233 52 280 0.0 0.0 0.00 0.00 0.00 38 1008.8
20260509024728 52 278 0.0 0.0 0.00 0.00 0.00 37 1009.0
20260509024224 52 285 0.0 0.0 0.00 0.00 0.00 37 1009.2
20260509023722 52 276 0.0 0.0 0.00 0.00 0.00 37 1009.2
20260509023219 52 275 0.0 0.0 0.00 0.00 0.00 37 1009.2
20260509022715 51 277 0.0 0.0 0.00 0.00 0.00 37 1009.1
20260509022213 52 277 0.0 0.0 0.00 0.00 0.00 36 1009.2
20260509021710 52 277 0.0 0.0 0.00 0.00 0.00 38 1009.2
20260509021207 52 277 0.0 0.0 0.00 0.00 0.00 37 1009.3
20260509020705 52 278 0.0 0.0 0.00 0.00 0.00 37 1009.4
20260509020202 52 278 0.0 0.0 0.00 0.00 0.00 35 1009.4
20260509015700 53 278 0.0 0.9 0.00 0.00 0.00 35 1009.4
20260509015158 53 280 0.0 0.0 0.00 0.00 0.00 34 1009.1
20260509014654 53 279 0.0 0.0 0.00 0.00 0.00 36 1009.4
20260509014150 53 280 0.0 0.0 0.00 0.00 0.00 34 1009.1
20260509013648 53 280 0.0 0.0 0.00 0.00 0.00 36 1009.2
20260509013143 54 280 0.0 0.0 0.00 0.00 0.00 35 1009.2
20260509012640 54 280 0.0 0.0 0.00 0.00 0.00 35 1008.9
20260509012137 55 279 0.0 0.0 0.00 0.00 0.00 35 1008.8
20260509011635 55 274 0.0 0.9 0.00 0.00 0.00 34 1008.9
20260509011132 55 277 0.0 0.0 0.00 0.00 0.00 34 1008.9
20260509010630 55 278 0.0 0.0 0.00 0.00 0.00 34 1008.9
20260509010126 56 278 0.0 0.0 0.00 0.00 0.00 33 1009.1
20260509005624 56 278 0.0 0.9 0.00 0.00 0.00 32 1009.0
20260509005120 57 281 0.9 0.9 0.00 0.00 0.00 31 1008.8
20260509004616 57 275 0.0 0.0 0.00 0.00 0.00 30 1008.8
20260509004113 57 279 0.0 0.0 0.00 0.00 0.00 29 1008.9
20260509003611 58 282 0.0 0.0 0.00 0.00 0.00 29 1008.9
20260509003108 58 281 0.0 0.0 0.00 0.00 0.00 28 1008.9
20260509002605 59 272 0.0 0.9 0.00 0.00 0.00 27 1009.0
20260509002057 59 275 0.9 0.9 0.00 0.00 0.00 27 1009.0
20260509001555 59 274 0.9 1.7 0.00 0.00 0.00 26 1009.0
20260509001050 59 267 0.9 1.7 0.00 0.00 0.00 25 1009.3
20260509000549 59 279 0.0 0.0 0.00 0.00 0.00 26 1009.3
20260509000044 60 235 2.6 2.6 0.00 0.00 0.00 25 1009.1
20260508235543 60 247 1.7 1.7 0.00 0.00 0.00 25 1009.4
20260508235038 60 233 0.9 1.7 0.00 0.00 0.00 25 1009.3
20260508234536 60 258 1.7 1.7 0.00 0.00 0.00 25 1009.4
20260508234033 60 273 0.9 0.9 0.00 0.00 0.00 24 1009.4
20260508233532 60 265 1.7 1.7 0.00 0.00 0.00 23 1009.5
20260508233029 61 210 3.5 4.3 0.00 0.00 0.00 24 1009.7
20260508232526 61 286 0.9 0.9 0.00 0.00 0.00 25 1009.9
20260508232022 60 288 0.0 0.0 0.00 0.00 0.00 27 1009.6
20260508231520 61 259 1.7 1.7 0.00 0.00 0.00 26 1009.7
20260508231017 61 274 0.0 0.9 0.00 0.00 0.00 27 1009.8
20260508230514 61 282 1.7 1.7 0.00 0.00 0.00 27 1009.9
20260508230011 61 248 1.7 1.7 0.00 0.00 0.00 27 1010.0
20260508225508 61 278 0.9 0.9 0.00 0.00 0.00 27 1010.2
20260508225004 60 261 1.7 1.7 0.00 0.00 0.00 28 1010.1
20260508224503 61 265 2.6 2.6 0.00 0.00 0.00 27 1009.8
20260508223959 61 274 1.7 2.6 0.00 0.00 0.00 27 1010.1
20260508223457 61 285 0.9 0.9 0.00 0.00 0.00 28 1010.1
20260508222954 61 286 0.9 1.7 0.00 0.00 0.00 27 1010.0
20260508222451 61 290 1.7 1.7 0.00 0.00 0.00 27 1010.3
20260508221948 61 284 0.9 1.7 0.00 0.00 0.00 27 1010.5
20260508221444 60 284 0.9 0.9 0.00 0.00 0.00 29 1010.5
20260508220940 60 280 0.9 1.7 0.00 0.00 0.00 29 1010.6
20260508220437 60 285 0.9 1.7 0.00 0.00 0.00 27 1010.4
20260508215933 61 287 1.7 1.7 0.00 0.00 0.00 27 1010.5
20260508215431 61 288 1.7 1.7 0.00 0.00 0.00 27 1010.4
20260508214927 62 284 0.9 0.9 0.00 0.00 0.00 27 1010.3
20260508214425 61 274 2.6 4.3 0.00 0.00 0.00 27 1010.3
20260508213920 61 278 3.5 4.3 0.00 0.00 0.00 27 1010.5
20260508213418 61 283 1.7 2.6 0.00 0.00 0.00 28 1010.6
20260508212914 61 283 0.9 0.9 0.00 0.00 0.00 27 1010.6
20260508212410 61 281 1.7 1.7 0.00 0.00 0.00 28 1010.5
20260508211906 60 276 0.9 1.7 0.00 0.00 0.00 28 1010.5
20260508211402 61 285 1.7 1.7 0.00 0.00 0.00 27 1010.5
20260508210900 61 277 2.6 2.6 0.00 0.00 0.00 27 1010.6
20260508210356 61 284 0.9 1.7 0.00 0.00 0.00 27 1011.1
20260508205852 61 253 1.7 1.7 0.00 0.00 0.00 27 1011.0
20260508205349 62 263 1.7 1.7 0.00 0.00 0.00 28 1011.2
20260508204845 62 281 1.7 2.6 0.00 0.00 0.00 30 1011.1
20260508204343 61 283 2.6 2.6 0.00 0.00 0.00 31 1011.1
20260508203838 61 272 2.6 4.3 0.00 0.00 0.00 31 1011.2
20260508203335 61 285 1.7 1.7 0.00 0.00 0.00 30 1011.3
20260508202831 61 281 1.7 2.6 0.00 0.00 0.00 31 1011.4
20260508202328 60 281 1.7 1.7 0.00 0.00 0.00 33 1011.4
20260508201825 61 276 1.7 1.7 0.00 0.00 0.00 32 1011.5
20260508201322 62 271 0.9 0.9 0.00 0.00 0.00 35 1011.5
20260508200818 62 278 2.6 2.6 0.00 0.00 0.00 33 1011.8
20260508200315 60 279 0.9 1.7 0.00 0.00 0.00 34 1011.8
20260508195811 60 261 1.7 1.7 0.00 0.00 0.00 35 1011.9
20260508195308 61 287 2.6 2.6 0.00 0.00 0.00 34 1011.9
20260508194804 61 278 1.7 1.7 0.00 0.00 0.00 33 1011.8
20260508194302 61 276 1.7 1.7 0.00 0.00 0.00 34 1012.1
20260508193759 62 269 0.9 0.9 0.00 0.00 0.00 35 1011.8
20260508193255 62 279 2.6 2.6 0.00 0.00 0.00 33 1011.9
20260508192751 62 272 0.9 0.9 0.00 0.00 0.00 36 1012.4
20260508192249 61 268 0.9 0.9 0.00 0.00 0.00 36 1012.0
20260508191746 60 275 2.6 2.6 0.00 0.00 0.00 37 1012.4
20260508191243 61 274 1.7 1.7 0.00 0.00 0.00 37 1012.2
20260508190740 60 270 0.0 0.9 0.00 0.00 0.00 36 1012.3
20260508190236 60 272 2.6 2.6 0.00 0.00 0.00 38 1012.4
20260508185733 60 259 1.7 1.7 0.00 0.00 0.00 39 1012.4
20260508185230 59 284 1.7 1.7 0.00 0.00 0.00 42 1012.5
20260508184727 58 274 3.5 4.3 0.00 0.00 0.00 42 1012.6
20260508184224 58 276 2.6 2.6 0.00 0.00 0.00 40 1012.5
20260508183721 58 281 0.9 1.7 0.00 0.00 0.00 41 1012.4
20260508183217 57 281 2.6 2.6 0.00 0.00 0.00 42 1012.6
20260508182713 57 272 2.6 2.6 0.00 0.00 0.00 42 1012.6
20260508182210 58 284 2.6 2.6 0.00 0.00 0.00 41 1012.7
20260508181706 60 280 1.7 1.7 0.00 0.00 0.00 37 1012.6
20260508181203 59 280 1.7 2.6 0.00 0.00 0.00 32 1012.7
20260508180659 59 259 1.7 1.7 0.00 0.00 0.00 37 1012.9
20260508180156 59 278 1.7 1.7 0.00 0.00 0.00 34 1012.9
20260508175648 59 272 2.6 2.6 0.00 0.00 0.00 34 1012.9
20260508175144 58 278 1.7 1.7 0.00 0.00 0.00 37 1012.9
20260508174642 58 282 1.7 1.7 0.00 0.00 0.00 32 1013.0
20260508174138 59 284 1.7 1.7 0.00 0.00 0.00 34 1013.0
20260508173635 59 284 0.9 0.9 0.00 0.00 0.00 34 1013.0
20260508173131 60 270 0.9 1.7 0.00 0.00 0.00 33 1012.9
20260508172629 59 270 1.7 1.7 0.00 0.00 0.00 32 1013.2
20260508172125 59 290 2.6 4.3 0.00 0.00 0.00 34 1013.3
20260508171622 60 266 1.7 2.6 0.00 0.00 0.00 31 1013.4
20260508171118 59 274 0.9 0.9 0.00 0.00 0.00 33 1013.1
20260508170616 59 264 0.9 1.7 0.00 0.00 0.00 32 1013.4
20260508170113 58 279 2.6 2.6 0.00 0.00 0.00 35 1013.6
20260508165610 58 306 2.6 2.6 0.00 0.00 0.00 35 1013.6
20260508165106 58 277 1.7 1.7 0.00 0.00 0.00 36 1013.8
20260508164603 57 269 2.6 2.6 0.00 0.00 0.00 37 1014.0
20260508164100 58 237 2.6 2.6 0.00 0.00 0.00 37 1014.0
20260508163557 58 274 2.6 2.6 0.00 0.00 0.00 37 1014.0
20260508163054 58 274 1.7 1.7 0.00 0.00 0.00 36 1013.9
20260508162551 58 263 1.7 1.7 0.00 0.00 0.00 39 1014.0
20260508162048 58 226 1.7 1.7 0.00 0.00 0.00 39 1013.9
20260508161545 58 272 2.6 2.6 0.00 0.00 0.00 41 1014.0
20260508161042 59 262 1.7 1.7 0.00 0.00 0.00 38 1014.0
20260508160541 59 279 0.9 1.7 0.00 0.00 0.00 40 1013.8
20260508160037 59 276 0.9 1.7 0.00 0.00 0.00 40 1013.9
20260508155534 58 256 1.7 1.7 0.00 0.00 0.00 42 1014.1
20260508155031 58 276 1.7 2.6 0.00 0.00 0.00 42 1014.0
20260508154528 57 246 0.9 1.7 0.00 0.00 0.00 41 1014.1
20260508154025 57 330 2.6 2.6 0.00 0.00 0.00 44 1013.9
20260508153522 57 271 1.7 1.7 0.00 0.00 0.00 44 1014.1
20260508153019 58 200 0.9 1.7 0.00 0.00 0.00 46 1014.0
20260508152515 57 276 0.9 0.9 0.00 0.00 0.00 50 1013.9
20260508152010 56 281 0.0 0.0 0.00 0.00 0.00 50 1013.9
20260508151508 57 283 0.9 1.7 0.00 0.00 0.00 57 1014.1
20260508151004 57 199 1.7 4.3 0.00 0.00 0.00 58 1014.3
20260508150502 56 311 1.7 1.7 0.00 0.00 0.00 60 1014.3
20260508145956 55 278 0.0 0.9 0.00 0.00 0.00 61 1014.1
20260508145454 55 277 1.7 1.7 0.00 0.00 0.00 66 1014.1
20260508144950 55 275 3.5 5.2 0.00 0.00 0.00 65 1014.2
20260508144448 55 284 0.9 0.9 0.00 0.00 0.00 65 1014.3
20260508143945 55 279 1.7 1.7 0.00 0.00 0.00 62 1014.2
20260508143443 55 278 0.9 0.9 0.00 0.00 0.00 65 1014.4
20260508142939 55 309 0.0 0.0 0.00 0.00 0.00 64 1014.2
20260508142437 54 294 0.9 0.9 0.00 0.00 0.00 67 1014.2
20260508141933 55 290 1.7 1.7 0.00 0.00 0.00 67 1014.4
20260508141429 53 284 1.7 2.6 0.00 0.00 0.00 72 1014.5
20260508140927 53 266 0.9 1.7 0.00 0.00 0.00 70 1014.4
20260508140424 54 272 0.9 1.7 0.00 0.00 0.00 67 1014.4
20260508135919 54 289 0.9 0.9 0.00 0.00 0.00 69 1014.4
20260508135417 55 292 1.7 1.7 0.00 0.00 0.00 66 1014.3
20260508134913 55 321 0.9 1.7 0.00 0.00 0.00 62 1014.3
20260508134409 55 313 1.7 1.7 0.00 0.00 0.00 64 1014.4
20260508133906 55 350 0.9 0.9 0.00 0.00 0.00 64 1014.3
20260508133404 54 323 0.0 0.0 0.00 0.00 0.00 66 1014.2
20260508132901 53 295 0.9 0.9 0.00 0.00 0.00 67 1014.3
20260508132359 53 318 0.9 0.9 0.00 0.00 0.00 68 1014.4
20260508131855 53 291 0.0 0.0 0.00 0.00 0.00 68 1014.4
20260508131350 52 308 0.9 0.9 0.00 0.00 0.00 69 1014.6
20260508130847 51 319 2.6 2.6 0.00 0.00 0.00 70 1014.4
20260508130344 51 290 0.0 0.0 0.00 0.00 0.00 71 1014.5
20260508125840 49 288 0.0 0.0 0.00 0.00 0.00 74 1014.7
20260508125336 49 288 0.0 0.0 0.00 0.00 0.00 74 1014.8
20260508124835 48 288 0.9 0.9 0.00 0.00 0.00 74 1014.6
20260508124331 47 287 0.9 0.9 0.00 0.00 0.00 75 1014.7
20260508123830 47 287 0.0 0.0 0.00 0.00 0.00 74 1014.8
20260508123328 48 287 0.0 0.0 0.00 0.00 0.00 72 1015.0
20260508122824 48 288 0.0 0.0 0.00 0.00 0.00 72 1014.6
20260508122321 47 288 0.0 0.0 0.00 0.00 0.00 73 1014.8
20260508121818 47 293 0.0 0.0 0.00 0.00 0.00 73 1014.7
20260508121317 47 295 0.0 0.0 0.00 0.00 0.00 74 1014.7
20260508120814 44 295 0.0 0.0 0.00 0.00 0.00 77 1014.5
20260508120312 44 295 0.9 0.9 0.00 0.00 0.00 76 1014.5
20260508115808 44 299 0.0 0.0 0.00 0.00 0.00 81 1014.4
20260508115307 42 299 0.0 0.0 0.00 0.00 0.00 85 1014.3
20260508114803 41 299 0.0 0.0 0.00 0.00 0.00 87 1014.4
20260508114300 40 299 0.0 0.0 0.00 0.00 0.00 94 1014.2
20260508113756 39 299 0.0 0.0 0.00 0.00 0.00 95 1014.3
20260508113254 36 299 0.0 0.0 0.00 0.00 0.00 96 1014.2
20260508112750 34 299 0.0 0.0 0.00 0.00 0.00 97 1014.0
20260508112247 34 299 0.0 0.0 0.00 0.00 0.00 96 1014.0
20260508111743 34 299 0.0 0.0 0.00 0.00 0.00 96 1014.1
20260508111241 34 300 0.0 0.0 0.00 0.00 0.00 97 1014.0
20260508110738 33 300 0.0 0.0 0.00 0.00 0.00 97 1014.2
20260508110236 33 299 0.0 0.0 0.00 0.00 0.00 97 1014.2
20260508105730 33 299 0.0 0.0 0.00 0.00 0.00 96 1014.0
20260508105227 33 299 0.0 0.0 0.00 0.00 0.00 96 1014.0
20260508104724 33 299 0.0 0.0 0.00 0.00 0.00 96 1014.1
20260508104221 33 299 0.0 0.0 0.00 0.00 0.00 96 1013.8
20260508103719 33 299 0.0 0.0 0.00 0.00 0.00 96 1013.9
20260508103215 33 299 0.0 0.0 0.00 0.00 0.00 96 1013.7
20260508102712 33 299 0.0 0.0 0.00 0.00 0.00 96 1013.9